User: anonymous   Login
Location: Unspecified
(0.0000°N, 0.0000°E)
Time: 03:20:42
(UTC+00:00)
Language:

ISIS 1 - Orbit

View from above orbital plane
View from above orbital plane
View from above satellite
View from above satellite

Ground track
Ground track

The orbit data is extracted from the following two-line orbital elements,

1  3669U 69009A   18172.39036813 +.00000020 +00000-0 +58799-5 0  9995
2  3669 088.4244 107.3864 1712749 012.2169 351.5446 11.29459021030305
Epoch (UTC): 21 June 2018 09:22:07
Eccentricity: 0.1712749
inclination: 88.4244°
perigee height: 576 km
apogee height: 3450 km
right ascension of ascending node: 107.3864°
argument of perigee: 12.2169°
revolutions per day: 11.29459021
mean anomaly at epoch: 351.5446°
orbit number at epoch: 3030

The dashed part of the orbit path shows where the satellite is in the earth's shadow,  

DLR